Retour au catalogue

STARLINK-36488

ActifCommunicationsVLEO
NORAD 67306·PAYLOAD·🇺🇸 United States

Lancé Jan 4, 2026 depuis Cape Canaveral Space Force Station

Loading…

Prochains Passages (prochaines 24 heures)

TLE

FraisSource: CelesTrak SupGP

Époque: Sep 15, 2026, 03:50 UTC

1 67306C 26002B   26258.16020833  .00050736  00000+0  18373-2 0  2580
2 67306  43.0006 335.5304 0001240 264.4955  59.8446 15.27559713    14

Suivez STARLINK-36488 en temps réel avec AllMySat

Download on the App Store